Powrót do katalogu

STARLINK-31439

AktywnyŁącznośćVLEO
NORAD 59178·PAYLOAD·🇺🇸 United States

Wystrzelony Mar 10, 2024 z Cape Canaveral Space Force Station

Loading…

Następne Przeloty (najbliższe 24 godziny)

TLE

ŚwieżeSource: CelesTrak SupGP

Epoka: Sep 15, 2026, 03:14 UTC

1 59178C 24045A   26258.13520833  .00006015  00000+0  21782-3 0  2585
2 59178  43.0020  99.3612 0001441 275.0848  52.8504 15.27581876    10

Śledź STARLINK-31439 w czasie rzeczywistym z AllMySat

Download on the App Store